Time,TemperatureF,DewpointF,PressureIn,WindDirection,WindDirectionDegrees,WindSpeedMPH,WindSpeedGustMPH,Humidity,HourlyPrecipIn,Conditions,Clouds,dailyrainin,SoftwareType,DateUTC
2013-08-08 00:00:00,74.3,73.4,30.02,ESE,121,0.0,0.0,97,0.00,,,0.00,VWS V14.00,2013-08-08 04:00:00,
2013-08-08 06:06:00,71.4,70.8,30.00,ESE,121,0.0,0.0,98,0.00,,,0.00,VWS V14.00,2013-08-08 10:06:00,
2013-08-08 06:11:00,71.4,70.8,30.00,ESE,121,0.0,0.0,98,0.00,,,0.00,VWS V14.00,2013-08-08 10:11:00,
2013-08-08 06:16:00,71.4,70.8,30.00,ESE,121,0.0,0.0,98,0.00,,,0.00,VWS V14.00,2013-08-08 10:16:00,
2013-08-08 06:21:00,71.4,71.1,30.00,ESE,121,0.0,0.0,99,0.00,,,0.00,VWS V14.00,2013-08-08 10:21:00,
2013-08-08 06:27:00,71.4,71.1,30.00,ESE,121,0.0,0.0,99,0.00,,,0.00,VWS V14.00,2013-08-08 10:27:00,
2013-08-08 06:32:00,71.4,71.1,30.00,ESE,121,0.0,0.0,99,0.00,,,0.00,VWS V14.00,2013-08-08 10:32:00,
2013-08-08 06:37:00,71.4,71.1,30.00,ESE,121,0.0,0.0,99,0.00,,,0.00,VWS V14.00,2013-08-08 10:37:00,
2013-08-08 06:42:00,71.5,71.2,30.00,ESE,121,0.0,0.0,99,0.00,,,0.00,VWS V14.00,2013-08-08 10:42:00,
2013-08-08 06:47:00,71.4,71.1,30.00,ESE,121,0.0,0.0,99,0.00,,,0.00,VWS V14.00,2013-08-08 10:47:00,
2013-08-08 06:52:00,71.4,71.1,30.00,ESE,121,0.0,0.0,99,0.00,,,0.00,VWS V14.00,2013-08-08 10:52:00,
2013-08-08 06:57:00,71.5,70.9,30.00,ESE,121,0.0,0.0,98,0.00,,,0.00,VWS V14.00,2013-08-08 10:57:00,
2013-08-08 07:02:00,71.5,71.2,30.00,ESE,121,0.0,0.0,99,0.00,,,0.00,VWS V14.00,2013-08-08 11:02:00,
2013-08-08 07:07:00,71.6,71.3,30.00,ESE,121,0.0,0.0,99,0.00,,,0.00,VWS V14.00,2013-08-08 11:07:00,
2013-08-08 07:12:00,71.8,71.5,30.00,ESE,121,0.0,0.0,99,0.00,,,0.00,VWS V14.00,2013-08-08 11:12:00,
2013-08-08 07:18:00,72.0,71.7,30.00,ESE,121,0.0,0.0,99,0.00,,,0.00,VWS V14.00,2013-08-08 11:18:00,
2013-08-08 07:23:00,72.2,71.9,30.00,ESE,121,0.0,0.0,99,0.00,,,0.00,VWS V14.00,2013-08-08 11:23:00,
2013-08-08 07:28:00,72.4,72.1,30.01,ESE,121,0.0,0.0,99,0.00,,,0.00,VWS V14.00,2013-08-08 11:28:00,
2013-08-08 07:33:00,72.7,72.4,30.01,ESE,121,0.0,0.0,99,0.00,,,0.00,VWS V14.00,2013-08-08 11:33:00,
2013-08-08 07:38:00,72.9,72.6,30.01,ESE,121,0.0,0.0,99,0.00,,,0.00,VWS V14.00,2013-08-08 11:38:00,
2013-08-08 07:43:00,73.2,72.9,30.01,ESE,121,0.0,0.0,99,0.00,,,0.00,VWS V14.00,2013-08-08 11:43:00,
2013-08-08 07:48:00,73.4,73.1,30.01,ESE,121,0.0,0.0,99,0.00,,,0.00,VWS V14.00,2013-08-08 11:48:00,
2013-08-08 07:53:00,73.9,73.6,30.01,ESE,121,0.0,0.0,99,0.00,,,0.00,VWS V14.00,2013-08-08 11:53:00,
2013-08-08 07:58:00,74.3,74.0,30.01,ESE,121,0.0,0.0,99,0.00,,,0.00,VWS V14.00,2013-08-08 11:58:00,
2013-08-08 08:03:00,74.7,74.4,30.01,ESE,121,0.0,0.0,99,0.00,,,0.00,VWS V14.00,2013-08-08 12:03:00,
2013-08-08 08:09:00,75.0,74.7,30.01,ESE,121,0.0,0.0,99,0.00,,,0.00,VWS V14.00,2013-08-08 12:09:00,
2013-08-08 08:14:00,75.7,75.4,30.01,ESE,121,0.0,0.0,99,0.00,,,0.00,VWS V14.00,2013-08-08 12:14:00,
2013-08-08 08:19:00,76.2,75.9,30.01,ESE,121,0.0,0.0,99,0.00,,,0.00,VWS V14.00,2013-08-08 12:19:00,
2013-08-08 08:24:00,76.6,76.6,30.01,ESE,121,0.0,0.0,100,0.00,,,0.00,VWS V14.00,2013-08-08 12:24:00,
2013-08-08 08:29:00,76.9,76.6,30.01,ESE,121,0.0,0.0,99,0.00,,,0.00,VWS V14.00,2013-08-08 12:29:00,
2013-08-08 08:34:00,77.3,77.0,30.01,ESE,121,0.0,0.0,99,0.00,,,0.00,VWS V14.00,2013-08-08 12:34:00,
2013-08-08 08:39:00,78.1,77.8,30.01,ESE,121,0.0,0.0,99,0.00,,,0.00,VWS V14.00,2013-08-08 12:39:00,
2013-08-08 08:44:00,78.9,78.6,30.01,ESE,121,0.0,0.0,99,0.00,,,0.00,VWS V14.00,2013-08-08 12:44:00,
2013-08-08 08:49:00,79.9,79.6,30.01,ESE,121,0.0,0.0,99,0.00,,,0.00,VWS V14.00,2013-08-08 12:49:00,
2013-08-08 08:54:00,80.8,80.2,30.01,ESE,121,0.0,0.0,98,0.00,,,0.00,VWS V14.00,2013-08-08 12:54:00,
2013-08-08 08:59:00,81.4,80.2,30.02,ESE,121,0.0,0.0,96,0.00,,,0.00,VWS V14.00,2013-08-08 12:59:00,
2013-08-08 09:05:00,81.8,80.2,30.02,ESE,121,0.0,0.0,95,0.00,,,0.00,VWS V14.00,2013-08-08 13:05:00,
2013-08-08 09:10:00,82.2,79.7,30.02,ESE,121,0.0,0.0,92,0.00,,,0.00,VWS V14.00,2013-08-08 13:10:00,
2013-08-08 09:15:00,82.3,79.4,30.02,ESE,121,0.0,1.0,91,0.00,,,0.00,VWS V14.00,2013-08-08 13:15:00,
2013-08-08 09:20:00,82.3,79.1,30.02,ESE,121,0.0,1.0,90,0.00,,,0.00,VWS V14.00,2013-08-08 13:20:00,
2013-08-08 09:25:00,82.7,79.8,30.02,ESE,121,2.0,2.0,91,0.00,,,0.00,VWS V14.00,2013-08-08 13:25:00,
2013-08-08 09:30:00,83.0,79.4,30.03,WNW,294,2.0,3.0,89,0.00,,,0.00,VWS V14.00,2013-08-08 13:30:00,
2013-08-08 09:35:00,82.9,79.3,30.03,WNW,294,1.0,3.0,89,0.00,,,0.00,VWS V14.00,2013-08-08 13:35:00,
2013-08-08 09:40:00,82.9,79.7,30.02,WNW,294,0.0,3.0,90,0.00,,,0.00,VWS V14.00,2013-08-08 13:40:00,
2013-08-08 09:45:00,83.2,80.0,30.02,WNW,294,0.0,0.0,90,0.00,,,0.00,VWS V14.00,2013-08-08 13:45:00,
2013-08-08 09:50:00,83.4,79.5,30.03,WNW,294,0.0,1.0,88,0.00,,,0.00,VWS V14.00,2013-08-08 13:50:00,
2013-08-08 09:55:00,83.8,79.2,30.03,WNW,294,0.0,2.0,86,0.00,,,0.00,VWS V14.00,2013-08-08 13:55:00,
2013-08-08 10:00:00,84.5,80.6,30.03,WNW,294,0.0,2.0,88,0.00,,,0.00,VWS V14.00,2013-08-08 14:00:00,
2013-08-08 10:06:00,84.8,79.1,30.03,SE,142,1.0,3.0,83,0.00,,,0.00,VWS V14.00,2013-08-08 14:06:00,
2013-08-08 10:11:00,84.9,79.2,30.03,SE,142,0.0,3.0,83,0.00,,,0.00,VWS V14.00,2013-08-08 14:11:00,
2013-08-08 10:16:00,85.1,79.4,30.03,SW,236,0.0,3.0,83,0.00,,,0.00,VWS V14.00,2013-08-08 14:16:00,
2013-08-08 10:21:00,85.5,79.0,30.03,SW,236,0.0,3.0,81,0.00,,,0.00,VWS V14.00,2013-08-08 14:21:00,
2013-08-08 10:26:00,86.3,79.4,30.03,South,188,1.0,2.0,80,0.00,,,0.00,VWS V14.00,2013-08-08 14:26:00,
2013-08-08 10:31:00,86.9,80.0,30.03,East,92,0.0,2.0,80,0.00,,,0.00,VWS V14.00,2013-08-08 14:31:00,
2013-08-08 10:36:00,87.0,79.7,30.03,WNW,302,2.0,4.0,79,0.00,,,0.00,VWS V14.00,2013-08-08 14:36:00,
2013-08-08 10:41:00,86.7,79.8,30.03,WNW,291,0.0,0.0,80,0.00,,,0.00,VWS V14.00,2013-08-08 14:41:00,
2013-08-08 10:46:00,86.4,79.5,30.03,NW,306,0.0,3.0,80,0.00,,,0.00,VWS V14.00,2013-08-08 14:46:00,
2013-08-08 10:51:00,85.9,78.6,30.02,NW,306,0.0,0.0,79,0.00,,,0.00,VWS V14.00,2013-08-08 14:51:00,
2013-08-08 10:56:00,85.9,78.6,30.03,NW,306,0.0,0.0,79,0.00,,,0.00,VWS V14.00,2013-08-08 14:56:00,
2013-08-08 11:01:00,85.8,78.9,30.03,NW,306,0.0,0.0,80,0.00,,,0.00,VWS V14.00,2013-08-08 15:01:00,
2013-08-08 11:07:00,85.3,79.2,30.03,NW,306,0.0,1.0,82,0.00,,,0.00,VWS V14.00,2013-08-08 15:07:00,
2013-08-08 11:12:00,84.4,79.0,30.03,NW,306,0.0,0.0,84,0.00,,,0.00,VWS V14.00,2013-08-08 15:12:00,
2013-08-08 11:17:00,84.0,79.7,30.03,NW,306,0.0,0.0,87,0.00,,,0.00,VWS V14.00,2013-08-08 15:17:00,
2013-08-08 11:22:00,84.2,78.8,30.02,NW,306,0.0,0.0,84,0.00,,,0.00,VWS V14.00,2013-08-08 15:22:00,
2013-08-08 11:27:00,85.1,79.4,30.02,ESE,107,2.0,2.0,83,0.00,,,0.00,VWS V14.00,2013-08-08 15:27:00,
2013-08-08 11:32:00,86.1,79.2,30.02,SE,142,1.0,4.0,80,0.00,,,0.00,VWS V14.00,2013-08-08 15:32:00,
2013-08-08 11:37:00,86.7,79.4,30.02,SE,128,1.0,4.0,79,0.00,,,0.00,VWS V14.00,2013-08-08 15:37:00,
2013-08-08 11:42:00,87.5,79.0,30.02,SE,131,0.0,1.0,76,0.00,,,0.00,VWS V14.00,2013-08-08 15:42:00,
2013-08-08 11:47:00,88.5,79.2,30.02,SE,130,1.0,2.0,74,0.00,,,0.00,VWS V14.00,2013-08-08 15:47:00,
2013-08-08 11:52:00,89.0,78.4,30.02,SSE,161,0.0,2.0,71,0.00,,,0.00,VWS V14.00,2013-08-08 15:52:00,
2013-08-08 11:57:00,89.6,78.5,30.02,SSW,199,1.0,4.0,70,0.00,,,0.00,VWS V14.00,2013-08-08 15:57:00,
2013-08-08 12:03:00,89.4,78.3,30.02,WSW,248,0.0,3.0,70,0.00,,,0.00,VWS V14.00,2013-08-08 16:03:00,
2013-08-08 12:08:00,88.6,78.8,30.02,WSW,252,2.0,3.0,73,0.00,,,0.00,VWS V14.00,2013-08-08 16:08:00,
2013-08-08 12:13:00,87.9,78.6,30.02,West,280,0.0,1.0,74,0.00,,,0.00,VWS V14.00,2013-08-08 16:13:00,
2013-08-08 12:18:00,87.7,78.8,30.02,West,280,0.0,1.0,75,0.00,,,0.00,VWS V14.00,2013-08-08 16:18:00,
2013-08-08 12:23:00,87.7,79.6,30.02,West,280,0.0,0.0,77,0.00,,,0.00,VWS V14.00,2013-08-08 16:23:00,
2013-08-08 12:28:00,87.7,80.8,30.02,West,280,0.0,1.0,80,0.00,,,0.00,VWS V14.00,2013-08-08 16:28:00,
2013-08-08 12:33:00,87.3,79.2,30.01,West,280,0.0,0.0,77,0.00,,,0.00,VWS V14.00,2013-08-08 16:33:00,
2013-08-08 12:38:00,87.1,80.2,30.01,West,280,0.0,0.0,80,0.00,,,0.00,VWS V14.00,2013-08-08 16:38:00,
2013-08-08 12:43:00,86.8,79.9,30.01,West,280,0.0,2.0,80,0.00,,,0.00,VWS V14.00,2013-08-08 16:43:00,
2013-08-08 12:48:00,86.6,78.9,30.02,West,280,0.0,2.0,78,0.00,,,0.00,VWS V14.00,2013-08-08 16:48:00,
2013-08-08 12:53:00,86.5,79.2,30.02,West,279,0.0,1.0,79,0.00,,,0.00,VWS V14.00,2013-08-08 16:53:00,
2013-08-08 12:58:00,86.5,79.2,30.01,ENE,60,1.0,3.0,79,0.00,,,0.00,VWS V14.00,2013-08-08 16:58:00,
2013-08-08 13:04:00,86.6,79.7,30.01,ENE,61,0.0,1.0,80,0.00,,,0.00,VWS V14.00,2013-08-08 17:04:00,
2013-08-08 13:09:00,86.8,79.9,30.01,ENE,61,0.0,1.0,80,0.00,,,0.00,VWS V14.00,2013-08-08 17:09:00,
2013-08-08 13:14:00,87.1,79.8,30.01,ENE,61,0.0,0.0,79,0.00,,,0.00,VWS V14.00,2013-08-08 17:14:00,
2013-08-08 13:19:00,87.4,79.7,30.01,ENE,60,1.0,2.0,78,0.00,,,0.00,VWS V14.00,2013-08-08 17:19:00,
2013-08-08 13:24:00,87.5,79.0,30.01,ENE,61,0.0,2.0,76,0.00,,,0.00,VWS V14.00,2013-08-08 17:24:00,
2013-08-08 13:29:00,87.9,79.8,30.01,ENE,61,0.0,2.0,77,0.00,,,0.00,VWS V14.00,2013-08-08 17:29:00,
2013-08-08 13:34:00,88.3,79.4,30.01,ENE,61,0.0,2.0,75,0.00,,,0.00,VWS V14.00,2013-08-08 17:34:00,
2013-08-08 13:39:00,88.8,79.9,30.01,East,95,0.0,2.0,75,0.00,,,0.00,VWS V14.00,2013-08-08 17:39:00,
2013-08-08 13:44:00,89.0,79.6,30.01,East,95,0.0,2.0,74,0.00,,,0.00,VWS V14.00,2013-08-08 17:44:00,
2013-08-08 13:49:00,89.1,80.1,30.01,NE,53,0.0,3.0,75,0.00,,,0.00,VWS V14.00,2013-08-08 17:49:00,
2013-08-08 13:54:00,89.0,80.4,30.00,WNW,302,2.0,5.0,76,0.00,,,0.00,VWS V14.00,2013-08-08 17:54:00,
2013-08-08 14:00:00,88.8,79.4,30.00,NE,56,0.0,5.0,74,0.00,,,0.00,VWS V14.00,2013-08-08 18:00:00,
2013-08-08 14:05:00,89.0,80.4,30.00,SE,128,2.0,4.0,76,0.00,,,0.00,VWS V14.00,2013-08-08 18:05:00,
2013-08-08 14:10:00,89.2,78.1,30.00,WNW,296,1.0,4.0,70,0.00,,,0.00,VWS V14.00,2013-08-08 18:10:00,
2013-08-08 14:15:00,89.0,78.4,30.00,NW,313,1.0,4.0,71,0.00,,,0.00,VWS V14.00,2013-08-08 18:15:00,
2013-08-08 14:20:00,88.8,79.9,30.00,West,270,0.0,4.0,75,0.00,,,0.00,VWS V14.00,2013-08-08 18:20:00,
2013-08-08 14:25:00,88.8,79.4,30.00,NNW,337,0.0,2.0,74,0.00,,,0.00,VWS V14.00,2013-08-08 18:25:00,
2013-08-08 14:30:00,89.4,80.0,30.00,WNW,291,0.0,3.0,74,0.00,,,0.00,VWS V14.00,2013-08-08 18:30:00,
2013-08-08 14:35:00,90.0,79.8,30.00,WSW,239,1.0,3.0,72,0.00,,,0.00,VWS V14.00,2013-08-08 18:35:00,
2013-08-08 14:40:00,90.3,79.2,30.00,NNW,336,2.0,5.0,70,0.00,,,0.00,VWS V14.00,2013-08-08 18:40:00,
2013-08-08 14:45:00,90.6,79.9,30.00,SSE,156,2.0,4.0,71,0.00,,,0.00,VWS V14.00,2013-08-08 18:45:00,
2013-08-08 14:48:00,90.8,80.1,30.00,SW,236,2.0,5.0,71,0.00,,,0.00,VWS V14.00,2013-08-08 18:48:00,
2013-08-08 14:50:00,90.8,80.1,30.00,SW,236,2.0,5.0,71,0.00,,,0.00,VWS V14.00,2013-08-08 18:50:00,
2013-08-08 14:55:00,90.8,80.1,30.00,SW,236,2.0,5.0,71,0.00,,,0.00,VWS V14.00,2013-08-08 18:55:00,
2013-08-08 15:39:00,89.6,79.4,29.99,West,279,1.0,5.0,72,0.00,,,0.00,VWS V14.00,2013-08-08 19:39:00,
2013-08-08 15:44:00,89.8,79.6,29.99,SW,236,0.0,3.0,72,0.00,,,0.00,VWS V14.00,2013-08-08 19:44:00,
2013-08-08 15:49:00,90.0,79.3,29.99,NW,305,1.0,6.0,71,0.00,,,0.00,VWS V14.00,2013-08-08 19:49:00,
2013-08-08 15:55:00,90.1,79.4,29.99,SSW,199,3.0,5.0,71,0.00,,,0.00,VWS V14.00,2013-08-08 19:55:00,
2013-08-08 16:00:00,90.0,79.3,29.99,WNW,288,0.0,5.0,71,0.00,,,0.00,VWS V14.00,2013-08-08 20:00:00,
2013-08-08 16:05:00,90.2,80.8,29.99,NW,322,6.0,6.0,74,0.00,,,0.00,VWS V14.00,2013-08-08 20:05:00,
2013-08-08 16:10:00,89.9,79.7,29.99,SW,236,0.0,7.0,72,0.00,,,0.00,VWS V14.00,2013-08-08 20:10:00,
2013-08-08 16:15:00,89.9,79.7,29.99,WNW,298,3.0,6.0,72,0.00,,,0.00,VWS V14.00,2013-08-08 20:15:00,
2013-08-08 16:20:00,89.9,80.1,29.99,NW,311,0.0,6.0,73,0.00,,,0.00,VWS V14.00,2013-08-08 20:20:00,
2013-08-08 17:40:00,88.0,79.1,30.00,SSE,158,0.0,3.0,75,0.00,,,0.00,VWS V14.00,2013-08-08 21:40:00,
2013-08-08 18:00:00,88.1,79.6,29.99,WSW,246,2.0,2.0,76,0.00,,,0.00,VWS V14.00,2013-08-08 22:00:00,
2013-08-08 18:05:00,88.3,79.4,29.99,WSW,256,0.0,4.0,75,0.00,,,0.00,VWS V14.00,2013-08-08 22:05:00,
2013-08-08 18:10:00,88.8,80.3,29.98,South,179,0.0,4.0,76,0.00,,,0.00,VWS V14.00,2013-08-08 22:10:00,
2013-08-08 18:15:00,88.9,79.5,29.98,WNW,282,2.0,3.0,74,0.00,,,0.00,VWS V14.00,2013-08-08 22:15:00,
2013-08-08 18:20:00,88.9,79.5,29.98,WSW,241,0.0,3.0,74,0.00,,,0.00,VWS V14.00,2013-08-08 22:20:00,
2013-08-08 18:26:00,88.7,78.5,29.98,SSW,212,1.0,4.0,72,0.00,,,0.00,VWS V14.00,2013-08-08 22:26:00,
2013-08-08 18:31:00,88.4,79.5,29.97,SSW,206,1.0,4.0,75,0.00,,,0.00,VWS V14.00,2013-08-08 22:31:00,
2013-08-08 18:36:00,87.9,79.0,29.97,SW,216,3.0,6.0,75,0.00,,,0.00,VWS V14.00,2013-08-08 22:36:00,
2013-08-08 18:41:00,87.4,78.5,29.97,SW,219,1.0,6.0,75,0.00,,,0.00,VWS V14.00,2013-08-08 22:41:00,
2013-08-08 18:46:00,87.1,79.0,29.98,SE,136,2.0,4.0,77,0.00,,,0.00,VWS V14.00,2013-08-08 22:46:00,
2013-08-08 18:53:00,86.9,78.8,29.97,SSW,206,2.0,4.0,77,0.00,,,0.00,VWS V14.00,2013-08-08 22:53:00,
2013-08-08 18:58:00,86.7,79.4,29.98,WSW,252,0.0,4.0,79,0.00,,,0.00,VWS V14.00,2013-08-08 22:58:00,
2013-08-08 19:04:00,86.4,79.5,29.98,SW,222,0.0,2.0,80,0.00,,,0.00,VWS V14.00,2013-08-08 23:04:00,
2013-08-08 19:12:00,86.0,79.5,29.98,WSW,239,0.0,2.0,81,0.00,,,0.00,VWS V14.00,2013-08-08 23:12:00,
2013-08-08 19:17:00,85.7,79.6,29.98,West,263,3.0,3.0,82,0.00,,,0.00,VWS V14.00,2013-08-08 23:17:00,
2013-08-08 19:22:00,85.2,79.5,29.98,WSW,242,0.0,1.0,83,0.00,,,0.00,VWS V14.00,2013-08-08 23:22:00,
2013-08-08 19:27:00,84.9,79.5,29.98,SSW,194,0.0,3.0,84,0.00,,,0.00,VWS V14.00,2013-08-08 23:27:00,
2013-08-08 19:32:00,84.6,79.2,29.98,SW,218,1.0,2.0,84,0.00,,,0.00,VWS V14.00,2013-08-08 23:32:00,
2013-08-08 19:38:00,84.4,79.4,29.98,SW,220,1.0,2.0,85,0.00,,,0.00,VWS V14.00,2013-08-08 23:38:00,
2013-08-08 19:43:00,84.1,79.1,29.99,SW,219,0.0,1.0,85,0.00,,,0.00,VWS V14.00,2013-08-08 23:43:00,
2013-08-08 19:48:00,83.9,79.3,29.99,SW,219,0.0,1.0,86,0.00,,,0.00,VWS V14.00,2013-08-08 23:48:00,
2013-08-08 19:53:00,83.6,79.3,29.99,WSW,258,0.0,3.0,87,0.00,,,0.00,VWS V14.00,2013-08-08 23:53:00,
2013-08-08 19:58:00,83.4,79.1,29.99,WSW,258,0.0,3.0,87,0.00,,,0.00,VWS V14.00,2013-08-08 23:58:00,
2013-08-08 20:04:00,83.2,78.9,29.99,WSW,257,0.0,0.0,87,0.00,,,0.00,VWS V14.00,2013-08-09 00:04:00,
2013-08-08 20:09:00,82.9,79.0,30.00,WSW,258,0.0,0.0,88,0.00,,,0.00,VWS V14.00,2013-08-09 00:09:00,
2013-08-08 20:14:00,82.7,78.8,30.00,WSW,257,0.0,0.0,88,0.00,,,0.00,VWS V14.00,2013-08-09 00:14:00,
2013-08-08 20:20:00,82.4,78.8,30.00,WSW,258,0.0,0.0,89,0.00,,,0.00,VWS V14.00,2013-08-09 00:20:00,
2013-08-08 20:25:00,82.2,78.6,30.00,WSW,258,0.0,0.0,89,0.00,,,0.00,VWS V14.00,2013-08-09 00:25:00,
2013-08-08 20:31:00,81.9,78.7,30.00,WSW,258,0.0,0.0,90,0.00,,,0.00,VWS V14.00,2013-08-09 00:31:00,
2013-08-08 20:36:00,81.6,78.4,30.00,WSW,258,0.0,0.0,90,0.00,,,0.00,VWS V14.00,2013-08-09 00:36:00,
2013-08-08 20:41:00,81.4,78.2,30.00,WSW,257,0.0,0.0,90,0.00,,,0.00,VWS V14.00,2013-08-09 00:41:00,
2013-08-08 20:46:00,81.2,78.3,30.00,WSW,257,0.0,0.0,91,0.00,,,0.00,VWS V14.00,2013-08-09 00:46:00,
2013-08-08 20:51:00,81.1,78.2,30.00,WSW,258,0.0,0.0,91,0.00,,,0.00,VWS V14.00,2013-08-09 00:51:00,
2013-08-08 20:57:00,80.9,78.4,30.01,WSW,258,0.0,0.0,92,0.00,,,0.00,VWS V14.00,2013-08-09 00:57:00,
2013-08-08 21:02:00,80.7,78.2,30.01,WSW,257,0.0,0.0,92,0.00,,,0.00,VWS V14.00,2013-08-09 01:02:00,
2013-08-08 21:07:00,80.6,78.1,30.01,WSW,258,0.0,0.0,92,0.00,,,0.00,VWS V14.00,2013-08-09 01:07:00,
2013-08-08 21:13:00,80.4,77.9,30.01,WSW,258,0.0,0.0,92,0.00,,,0.00,VWS V14.00,2013-08-09 01:13:00,
2013-08-08 21:19:00,80.1,77.6,30.01,WSW,257,0.0,0.0,92,0.00,,,0.00,VWS V14.00,2013-08-09 01:19:00,
2013-08-08 21:24:00,79.9,77.7,30.02,WSW,258,0.0,0.0,93,0.00,,,0.00,VWS V14.00,2013-08-09 01:24:00,
2013-08-08 21:29:00,79.7,77.5,30.02,WSW,258,0.0,0.0,93,0.00,,,0.00,VWS V14.00,2013-08-09 01:29:00,
2013-08-08 21:34:00,79.6,77.4,30.02,WSW,258,0.0,0.0,93,0.00,,,0.00,VWS V14.00,2013-08-09 01:34:00,
2013-08-08 21:40:00,79.5,77.6,30.02,WSW,257,0.0,0.0,94,0.00,,,0.00,VWS V14.00,2013-08-09 01:40:00,
2013-08-08 21:45:00,79.3,77.4,30.02,WSW,258,0.0,0.0,94,0.00,,,0.00,VWS V14.00,2013-08-09 01:45:00,
2013-08-08 21:50:00,79.3,77.4,30.02,WSW,257,0.0,0.0,94,0.00,,,0.00,VWS V14.00,2013-08-09 01:50:00,
2013-08-08 21:56:00,79.3,77.8,30.03,WSW,258,0.0,0.0,95,0.00,,,0.00,VWS V14.00,2013-08-09 01:56:00,
2013-08-08 22:01:00,79.3,77.8,30.03,WSW,258,0.0,0.0,95,0.00,,,0.00,VWS V14.00,2013-08-09 02:01:00,
2013-08-08 22:06:00,79.3,77.8,30.03,WSW,258,0.0,0.0,95,0.00,,,0.00,VWS V14.00,2013-08-09 02:06:00,
2013-08-08 22:11:00,79.3,77.8,30.03,WSW,258,0.0,0.0,95,0.00,,,0.00,VWS V14.00,2013-08-09 02:11:00,
2013-08-08 22:16:00,79.2,77.7,30.03,WSW,258,0.0,0.0,95,0.00,,,0.00,VWS V14.00,2013-08-09 02:16:00,
2013-08-08 22:22:00,79.2,77.7,30.03,WSW,258,0.0,0.0,95,0.00,,,0.00,VWS V14.00,2013-08-09 02:22:00,
2013-08-08 22:29:00,79.1,77.6,30.02,WSW,258,0.0,0.0,95,0.00,,,0.00,VWS V14.00,2013-08-09 02:29:00,
2013-08-08 22:34:00,79.1,77.6,30.02,WSW,258,0.0,0.0,95,0.00,,,0.00,VWS V14.00,2013-08-09 02:34:00,
2013-08-08 22:39:00,79.0,77.4,30.02,WSW,258,0.0,0.0,95,0.00,,,0.00,VWS V14.00,2013-08-09 02:39:00,
2013-08-08 22:45:00,79.0,77.8,30.03,WSW,258,0.0,0.0,96,0.00,,,0.00,VWS V14.00,2013-08-09 02:45:00,
2013-08-08 22:51:00,79.0,77.8,30.03,WSW,257,0.0,0.0,96,0.00,,,0.00,VWS V14.00,2013-08-09 02:51:00,
2013-08-08 22:56:00,78.9,77.7,30.03,WSW,257,0.0,0.0,96,0.00,,,0.00,VWS V14.00,2013-08-09 02:56:00,
2013-08-08 23:01:00,78.9,77.7,30.03,WSW,258,0.0,0.0,96,0.00,,,0.00,VWS V14.00,2013-08-09 03:01:00,
2013-08-08 23:06:00,78.9,77.7,30.03,WSW,257,0.0,0.0,96,0.00,,,0.00,VWS V14.00,2013-08-09 03:06:00,
2013-08-08 23:12:00,78.8,77.6,30.03,WSW,257,0.0,0.0,96,0.00,,,0.00,VWS V14.00,2013-08-09 03:12:00,
2013-08-08 23:17:00,78.8,77.6,30.03,WSW,258,0.0,0.0,96,0.00,,,0.00,VWS V14.00,2013-08-09 03:17:00,
2013-08-08 23:22:00,78.8,77.6,30.03,WSW,257,0.0,0.0,96,0.00,,,0.00,VWS V14.00,2013-08-09 03:22:00,
2013-08-08 23:27:00,78.8,77.6,30.03,WSW,257,0.0,0.0,96,0.00,,,0.00,VWS V14.00,2013-08-09 03:27:00,
2013-08-08 23:32:00,78.8,77.9,30.03,WSW,258,0.0,0.0,97,0.00,,,0.00,VWS V14.00,2013-08-09 03:32:00,
2013-08-08 23:37:00,78.7,77.8,30.03,WSW,258,0.0,0.0,97,0.00,,,0.00,VWS V14.00,2013-08-09 03:37:00,
2013-08-08 23:43:00,78.7,77.8,30.03,WSW,258,0.0,0.0,97,0.00,,,0.00,VWS V14.00,2013-08-09 03:43:00,
2013-08-08 23:48:00,78.7,77.8,30.03,WSW,257,0.0,0.0,97,0.00,,,0.00,VWS V14.00,2013-08-09 03:48:00,
2013-08-08 23:55:00,78.7,77.8,30.03,WSW,258,0.0,0.0,97,0.00,,,0.00,VWS V14.00,2013-08-09 03:55:00,